Regional Weather Roundup
Issued by NWS

Home | Current Version | Previous Version | Graphics & Text | Print | Product List | Glossary Off
Versions: 1 2 3 4 5 6 7 8 9 10 11 12 13 14 15 16 17 18 19 20 21 22 23 24 25 26 27 28 29 30 31 32 33 34 35 36 37 38 39 40 41 42 43 44 45 46 47 48 49 50

221
ASUS43 KMKX 222221
RWRWI

WISCONSIN REGIONAL WEATHER ROUNDUP
NATIONAL WEATHER SERVICE MILWAUKEE/SULLIVAN WI
500 PM CDT MON MAY 22 2017

NOTE: "FAIR" INDICATES FEW OR NO CLOUDS BELOW 12,000 FEET WITH NO
SIGNIFICANT WEATHER AND/OR OBSTRUCTIONS TO VISIBILITY.

WIZ001-002-006>008-014>016-023>028-222300-
NORTHWEST WISCONSIN

CITY           SKY/WX    TMP DP  RH WIND       PRES   REMARKS
SUPERIOR ARPT  NOT AVBL
ASHLAND        CLOUDY    53  44  71 W9        29.81R
HAYWARD        CLOUDY    56  42  59 VRB6      29.81S
SIREN          CLOUDY    57  41  56 CALM      29.83R
CUMBERLAND     CLOUDY    57  41  54 W13       29.82S
RICE LAKE      CLOUDY    60  42  51 W8        29.83S
CHETEK         PTSUNNY   61  45  55 NW7G16    29.82S
LADYSMITH      CLOUDY    58  43  57 W9        29.84R
EAU CLAIRE     PTSUNNY   66  43  43 W14       29.80S
MENOMONIE      MOSUNNY   65  44  47 W9        29.81S
NEW RICHMOND   PTSUNNY   63  41  44 W7        29.82S
OSCEOLA        PTSUNNY   63  44  49 NW9       29.84F
$$

WIZ003>005-009-010-017-018-222300-
NORTH CENTRAL WISCONSIN

CITY           SKY/WX    TMP DP  RH WIND       PRES   REMARKS
MANITOWISH WTR CLOUDY    52  44  73 W9        29.81R
ARBOR VITAE    MOSUNNY   57  44  63 W9        29.81R
WOODRUFF       MOSUNNY   57  44  63 W9        29.81R
RHINELANDER    PTSUNNY   58  41  53 NW12G17   29.81S
EAGLE RIVER    CLOUDY    53  40  61 W7        29.81R
LAND O LAKES   LGT RAIN  51  43  74 NW7       29.82R
PHILLIPS       CLOUDY    55  41  60 W8G16     29.81R
TOMAHAWK       PTSUNNY   57  40  53 W7G21     29.81S
MEDFORD        PTSUNNY   58  42  54 W9        29.81S
MERRILL        CLOUDY    62  43  48 W17       29.81R
$$

WIZ029-030-035-036-043>047-222300-
CENTRAL WISCONSIN

CITY           SKY/WX    TMP DP  RH WIND       PRES   REMARKS
WAUSAU         CLOUDY    62  43  49 W15       29.78S
MOSINEE        PTSUNNY   64  43  45 W17G23    29.80
MARSHFIELD     PTSUNNY   64  43  46 W13       29.80S
STEVENS POINT  MOSUNNY   65  41  41 W13G23    29.81S
WAUPACA        CLOUDY    69  42  37 SW15      29.80S
WAUTOMA        PTSUNNY   67  47  48 SW13G25   29.81S
WISC RAPIDS    MOSUNNY   70  43  37 W16G25    29.81S
CAMP DOUGLAS   PTSUNNY   70  46  43 SW12      29.81F
$$

WIZ011>013-019>022-031-037>040-048>050-222300-
NORTHEAST WISCONSIN

CITY           SKY/WX    TMP DP  RH WIND       PRES   REMARKS
ANTIGO         PTSUNNY   60  44  54 W14G22    29.81R
SHAWANO        PTSUNNY   69  41  35 W16G25    29.79S
OCONTO         PTSUNNY   67  44  43 W10       29.78F
STURGEON BAY   PTSUNNY   56  45  66 S13       29.80F
GREEN BAY      PTSUNNY   68  50  52 SW14      29.79F
MANITOWOC      SUNNY     68  46  45 SW18G26   29.81F
APPLETON       PTSUNNY   66  41  39 SW14G23   29.79F
CLINTONVILLE   CLOUDY    68  41  37 W9        29.79S
OSHKOSH        MOSUNNY   67  49  52 SW13G22   29.82S
$$

WIZ032>034-041-042-053>061-222300-
SOUTHWEST WISCONSIN

CITY           SKY/WX    TMP DP  RH WIND       PRES   REMARKS
LA CROSSE      PTSUNNY   69  51  52 SW9       29.81S
SPARTA         MOSUNNY   67  47  48 SW7       29.82F
VIROQUA        PTSUNNY   66  51  58 N8        29.83F
BOSCOBEL       MOSUNNY   69  52  54 W6        29.84F
PRAIRIE DU CHI CLOUDY    68  50  52 CALM      29.82F
PLATTEVILLE    MOSUNNY   68  57  68 SW8       29.85F
$$

WIZ056-057-062-063-064-067-068-222300-
SOUTH CENTRAL WISCONSIN

CITY           SKY/WX    TMP DP  RH WIND       PRES   REMARKS
REEDSBURG      CLOUDY    67  51  56 SW10      29.84S
BARABOO/DELLS  CLOUDY    66  50  55 SW9G16    29.84F
LONE ROCK      CLOUDY    66  52  60 SW6       29.84F
MINERAL POINT  MOSUNNY   68  55  64 W10       29.85F
MADISON        PTSUNNY   63  51  65 SW5       29.85F
MIDDLETON      CLOUDY    65  53  65 SW6       29.86F
WATERTOWN      PTSUNNY   63  52  68 SW9       29.86F
MONROE         CLOUDY    64  52  63 SW13G23   29.85F
JANESVILLE     PTSUNNY   70  52  52 SW15      29.85F
$$

WIZ051-052-058>065-066-070>072-222300-
SOUTHEAST WISCONSIN

CITY           SKY/WX    TMP DP  RH WIND       PRES   REMARKS
MILWAUKEE      CLOUDY    65  49  56 S6        29.88F
WAUKESHA       NOT AVBL
MILWAUKEE/TIMM PTSUNNY   63  45  51 SW6       29.88F
RACINE         CLOUDY    66  48  52 SW5       29.89F
KENOSHA        CLOUDY    68  51  54 CALM      29.88F
FOND DU LAC    CLOUDY    67  48  50 SW15      29.84F
SHEBOYGAN      PTSUNNY   65  51  60 SW16G22   29.84F
WEST BEND      CLOUDY    59  54  82 SW7       29.87F
JUNEAU         CLOUDY    59  52  76 S7        29.87F
$$

LSZ147-162-222300-
LAKE SUPERIOR

STATION/POSITION TIME  TEMP    WIND        PRES    WAVE
                       AIR SEA DIR/SP/G            HT/PER
                 (UTC) (F)     (DEG/KT/KT) (MB)    (FT/S)
W MID LAKE BUOY  2150   43 37  240/ 12/ 14 1008.7R   2/ 4
DEVILS ISLAND    2200   46     230/ 13/ 15 1009.0R
SAXON HARBOR     2140   56     220/  8/ 12 1009.1S
$$

LMZ867-665-643>646-222300-
LAKE MICHIGAN

STATION/POSITION TIME  TEMP    WIND        PRES    WAVE
                       AIR SEA DIR/SP/G            HT/PER
                 (UTC) (F)     (DEG/KT/KT) (MB)    (FT/S)
CHAMBERS ISLAND  2140   62     180/  8/ 15 1008.1F
N MID LAKE BUOY  2150   44 39  180/ 16/ 17 1010.6F   3/ 5
NORTHPORT PIER   2140   53     150/  8/ 16 1009.5S
KEWAUNEE LAKESHO 2154          170/ 12/ 14 1009.3F
SHEBOYGAN LAKESH 2200   64     230/ 19/ 22 1010.4F
PORT WASHINGTON  2130   58     230/  5/  7 1012.5F
ATWATER BUOY     2109   60     250/  8/ 10 1012.4F
MILWAUKEE LAKESH 2200   63     180/  5/  5   N/A
S MID LAKE BUOY  2150   50 45  150/  8/ 10 1013.1F   1/ 3
KENOSHA   LAKESH 2200   69     200/  6/ 10 1011.5
$$

TC  - TEMPERATURE IN CELSIUS
VSB - VISIBILITY IN STATUTE MILES
WCI - WIND CHILL INDEX
HX  - HEAT INDEX





USA.gov is the U.S. government's official web portal to all federal, state and local government web resources and services.